Estación de San Julian
Ultimos registro cada 15 minutos 49
| N° | Estación | Fecha / Hora | Temperatura | Humedad | Lluvia | Velocidad | Dirección | Radiación | Presion |
| 49 | San Julian | 04-09-2026 12:00 | 23,5 | 53,5 | 0 | 0 | 251 | 781,9 | 985,5 |
| 48 | San Julian | 04-09-2026 11:45 | 23,3 | 53,7 | 0 | 0 | 263 | 769,4 | 985,8 |
| 47 | San Julian | 04-09-2026 11:30 | 22,7 | 56,1 | 0 | 0 | 268 | 746,9 | 985,9 |
| 46 | San Julian | 04-09-2026 11:15 | 21,5 | 62,8 | 0 | 0,5 | 258 | 724,4 | 986 |
| 45 | San Julian | 04-09-2026 11:00 | 20,5 | 67 | 0 | 0 | 271 | 699,4 | 986,2 |
| 44 | San Julian | 04-09-2026 10:45 | 19,7 | 69,3 | 0 | 0 | 268 | 665,6 | 986,2 |
| 43 | San Julian | 04-09-2026 10:30 | 18,5 | 72,7 | 0 | 0,5 | 270 | 624,4 | 986,1 |
| 42 | San Julian | 04-09-2026 10:15 | 18,4 | 72,2 | 0 | 0 | 272 | 585,6 | 986,4 |
| 41 | San Julian | 04-09-2026 10:00 | 17,4 | 75,8 | 0 | 0 | 268 | 546,9 | 986,4 |
| 40 | San Julian | 04-09-2026 09:45 | 16,2 | 78,1 | 0 | 0 | 239 | 504,4 | 986,4 |
| 39 | San Julian | 04-09-2026 09:30 | 17,2 | 75,3 | 0 | 0 | 219 | 458,1 | 986,6 |
| 38 | San Julian | 04-09-2026 09:15 | 15,7 | 78,5 | 0 | 0 | 219 | 413,1 | 986,6 |
| 37 | San Julian | 04-09-2026 09:00 | 16,3 | 79 | 0 | 0 | 220 | 364,4 | 986,5 |
| 36 | San Julian | 04-09-2026 08:45 | 15,5 | 84,9 | 0 | 0 | 225 | 314,4 | 986,7 |
| 35 | San Julian | 04-09-2026 08:30 | 13,6 | 90,7 | 0 | 0 | 223 | 268,1 | 986,7 |
| 34 | San Julian | 04-09-2026 08:15 | 11,8 | 93,9 | 0 | 0 | 225 | 221,9 | 986,7 |
| 33 | San Julian | 04-09-2026 08:00 | 9,9 | 95,9 | 0 | 0 | 248 | 119,4 | 986,8 |
| 32 | San Julian | 04-09-2026 07:45 | 8,6 | 95,4 | 0 | 0 | 264 | 20,6 | 987,1 |
| 31 | San Julian | 04-09-2026 07:30 | 9,4 | 95,4 | 0 | 0 | 268 | 18,1 | 986,8 |
| 30 | San Julian | 04-09-2026 07:15 | 8,8 | 95,1 | 0 | 0 | 270 | 13,1 | 986,8 |
| 29 | San Julian | 04-09-2026 07:00 | 9,6 | 95,5 | 0 | 0 | 270 | 1,9 | 986,9 |
| 28 | San Julian | 04-09-2026 06:45 | 8,2 | 94,8 | 0 | 0 | 270 | 0,6 | 986,8 |
| 27 | San Julian | 04-09-2026 06:30 | 9,7 | 94,9 | 0 | 0 | 270 | 0,6 | 986,8 |
| 26 | San Julian | 04-09-2026 06:15 | 9,9 | 94,6 | 0 | 0 | 270 | 0,6 | 986,8 |
| 25 | San Julian | 04-09-2026 06:00 | 9,7 | 94,7 | 0 | 0 | 270 | 0,6 | 986,7 |
| 24 | San Julian | 04-09-2026 05:45 | 9,9 | 94,4 | 0 | 0 | 270 | 0,6 | 986,6 |
| 23 | San Julian | 04-09-2026 05:30 | 10,1 | 94,5 | 0 | 0 | 270 | 0,6 | 986,9 |
| 22 | San Julian | 04-09-2026 05:15 | 9,2 | 96,1 | 0 | 0 | 268 | 0,6 | 986,7 |
| 21 | San Julian | 04-09-2026 05:00 | 8,7 | 93,9 | 0 | 0 | 268 | 0,6 | 986,9 |
| 20 | San Julian | 04-09-2026 04:45 | 8,9 | 93,2 | 0 | 0 | 268 | 0,6 | 986,9 |
| 19 | San Julian | 04-09-2026 04:30 | 9,4 | 92,4 | 0 | 0 | 268 | 0,6 | 986,9 |
| 18 | San Julian | 04-09-2026 04:15 | 10,4 | 92 | 0 | 0 | 268 | 0,6 | 986,9 |
| 17 | San Julian | 04-09-2026 04:00 | 10,7 | 92,3 | 0 | 0 | 268 | 0,6 | 986,8 |
| 16 | San Julian | 04-09-2026 03:45 | 10,3 | 92 | 0 | 0 | 268 | 0,6 | 987,1 |
| 15 | San Julian | 04-09-2026 03:30 | 10,2 | 92 | 0 | 0 | 268 | 0,6 | 987,2 |
| 14 | San Julian | 04-09-2026 03:15 | 10,1 | 91,4 | 0 | 0 | 268 | 0,6 | 987,5 |
| 13 | San Julian | 04-09-2026 03:00 | 10,2 | 90,5 | 0 | 0 | 268 | 0,6 | 987,4 |
| 12 | San Julian | 04-09-2026 02:45 | 10,9 | 89,3 | 0 | 0 | 268 | 0,6 | 987,5 |
| 11 | San Julian | 04-09-2026 02:30 | 11,2 | 89,3 | 0 | 0 | 268 | 0,6 | 987,6 |
| 10 | San Julian | 04-09-2026 02:15 | 11,1 | 88,5 | 0 | 0 | 268 | 0,6 | 987,8 |
| 9 | San Julian | 04-09-2026 02:00 | 11,3 | 88,4 | 0 | 0 | 268 | 0,6 | 987,9 |
| 8 | San Julian | 04-09-2026 01:45 | 11,2 | 87,8 | 0 | 0 | 270 | 0,6 | 988 |
| 7 | San Julian | 04-09-2026 01:30 | 11,4 | 87,2 | 0 | 0 | 270 | 0,6 | 988,1 |
| 6 | San Julian | 04-09-2026 01:15 | 11,6 | 86,1 | 0 | 0 | 270 | 0,6 | 988,3 |
| 5 | San Julian | 04-09-2026 01:00 | 12 | 84,9 | 0 | 0 | 268 | 0,6 | 988 |
| 4 | San Julian | 04-09-2026 00:45 | 12,1 | 84,2 | 0 | 0 | 268 | 0,6 | 988,3 |
| 3 | San Julian | 04-09-2026 00:30 | 12,1 | 84,4 | 0 | 0 | 268 | 0,6 | 988,6 |
| 2 | San Julian | 04-09-2026 00:15 | 12,2 | 84,3 | 0 | 0 | 268 | 0,6 | 988,5 |
| 1 | San Julian | 04-09-2026 00:00 | 12,3 | 83,8 | 0 | 0 | 270 | 0,6 | 988,7 |